Torna al catalogo

COSMOS 1605

AttivoMilitarePO
NORAD 15359·PAYLOAD·🇷🇺 Russia

Lanciato Oct 11, 1984 da Plesetsk Cosmodrome

Loading…

Prossimi Passaggi (prossime 24 ore)

TLE

AggiornatoSource: Space-Track

Epoca: Sep 14, 2026, 00:45 UTC

1 15359U 84109A   26257.03176189  .00000035  00000-0  19677-4 0  9994
2 15359  82.9355  86.1969 0047623  74.5498  82.9620 13.75427517104043

Traccia COSMOS 1605 in tempo reale con AllMySat

Download on the App Store